Regional Weather Roundup
Issued by NWS

Home | Current Version | Previous Version | Graphics & Text | Print | Product List | Glossary On
Versions: 1 2 3 4 5 6 7 8 9 10 11 12 13 14 15 16 17 18 19 20 21 22 23 24 25 26 27 28 29 30 31 32 33 34 35 36 37 38 39 40 41 42 43 44 45 46 47 48 49 50
000
ASUS45 KSLC 261610
RWRUT

UTAH REGIONAL WEATHER ROUNDUP
NATIONAL WEATHER SERVICE SALT LAKE CITY UT
1000 AM MDT FRI MAY 26 2017

UTZ001>011-023>025-261700-

NORTHERN UTAH

CITY           SKY/WX    TMP DP  RH WIND       PRES   REMARKS
BRIGHAM CITY   PTSUNNY   57  35  42 SE7G16    29.81R
HILL AFB       CLOUDY    54  34  46 E14       29.81R
LOGAN          CLOUDY    56  36  47 SW8       29.82F
OGDEN          CLOUDY    57  36  45 S9        29.80R
SALT LAKE CITY CLOUDY    57  37  47 N5        29.82R
TOOELE VALLEY  CLOUDY    57  37  47 N5        29.84R
WENDOVER       SUNNY     60  35  39 N17       29.83R
HEBER CITY     PTSUNNY   61  30  31 S8        29.78R
WEST JORDAN    CLOUDY    55  42  61 NW5       29.84R

$$

UTZ011>015-024>027-261700-

CENTRAL/NORTHEAST UTAH

CITY           SKY/WX    TMP DP  RH WIND       PRES   REMARKS
PROVO AIRPORT  MOSUNNY   63  41  45 NW16      29.82R
MOAB/CANYONLAN SUNNY     77  21  12 S20G31    29.77F
DELTA          SUNNY     63  30  29 NW8       29.83R
PRICE          MOSUNNY   59  38  45 E7        29.84R
ROOSEVELT      SUNNY     63  36  36 E3        29.83F
VERNAL         SUNNY     63  39  41 VRB6      29.81R

$$

UTZ013>016-019>022-027-261700-

SOUTHERN UTAH

CITY           SKY/WX    TMP DP  RH WIND       PRES   REMARKS
BRYCE CANYON   SUNNY     59  22  24 S10G18    29.98R
CEDAR CITY     SUNNY     69  23  17 SW21G32   29.84R
MILFORD        SUNNY     71  24  17 S23G32    29.81R
ST GEORGE      PTSUNNY   79  24  13 SW9       29.77R
HANKSVILLE     MOSUNNY   75  21  13 SW30G39   29.79S
BLANDING       SUNNY     66  22  18 S17G23    30.03S

$$

REGIONAL REPORTS     COLORADO/ARIZONA

CITY           SKY/WX    TMP DP  RH WIND       PRES   REMARKS
CRAIG, CO      CLOUDY    59  44  57 E10       29.86F
GRAND JUNCTION SUNNY     71  38  29 SE23      29.84S
RIFLE, CO      SUNNY     66  40  38 NW7       29.87F
MONTROSE, CO   SUNNY     65  31  28 CALM      29.94F
CORTEZ, CO     SUNNY     67  24  19 S14       29.99R
COLORADO CITY    N/A     73  27  17 W7        29.91S
PAGE, AZ       SUNNY     75  18  11 S9G21     29.84R
GRAND CANYON   SUNNY     62  23  22 S16G22    30.02R
KINGMAN, AZ    SUNNY     76  21  12 SW22      29.85R
FLAGSTAFF, AZ  SUNNY     57  18  21 SW18G31   30.06R

$$

REGIONAL REPORTS    NEVADA/IDAHO/WYOMING

CITY           SKY/WX    TMP DP  RH WIND       PRES   REMARKS
LAS VEGAS, NV  SUNNY     76  28  17 S12       29.74R
ELY, NY        SUNNY     59  26  28 N10G16    29.91R
ELKO, NV       MOSUNNY   55  34  45 VRB7      29.90S
POCATELLO, ID  LGT RAIN  45  42  89 SW7       29.87R
BURLEY, ID     CLOUDY    46  41  82 W6        29.88R
FORT BRIDGER,    N/A     49  39  69 N6        29.90S
EVANSTON, WY   LGT RAIN  43  40  89 NW7       29.89R
ROCK SPRINGS,  CLOUDY    48  37  65 E8        29.87R
KEMMERER, WY   LGT RAIN  37  36  93 E6        29.90R WCI  33

$$



USA.gov is the U.S. government's official web portal to all federal, state and local government web resources and services.